Location: Cisewo
(53.3833°N, 14.9000°E)
Time: 12:43:39
(UTC+00:00)

Cosmos 2219 Rocket - Pass Details

Date: 18 April 2021
Orbit: 826 x 848 km, 71.0° (Epoch: 16 May)

Event Time Altitude Azimuth Distance (km) Brightness Sun altitude
Rises 19:06:02 0° 326° (NW) 3,422 6.8 -8.7°
Reaches altitude 10° 19:08:32 10° 322° (NW) 2,484 6.0 -9.1°
Maximum altitude 19:14:04 54° 247° (WSW) 1,028 2.9 -9.7°
Drops below altitude 10° 19:19:34 10° 171° (S) 2,466 4.2 -10.4°
Enters shadow 19:21:03 - 168° (SSE) 3,021 4.6 -10.6°
